NIMBUS 2 DEB, 28617

Orbit data source: Space-Track

NIMBUS 2 DEB, 28617 is space debris in SSO originally from a launch on Sun, 15 May 1966 UTC launched from the Air Force Western Test Range (AFWTR). Debris objects in space refer to the collection of defunct objects orbiting the Earth. Examples of debris include non-operational satellites, rocket bodies, and fragments generated from explosions, collisions, or faulty payload assembly.

Loading next visibility...
Identifier
28617, 1966-040AG
Orbit
SSO
Country
Flag of USUS
Related business
Manufacturer
Unknown
Mission
Spacecraft
Bus & Motor
Unknown
Mass
Unknown
Launch date (UTC)
1966-05-15 (59 years ago)
Launch vehicle
Unknown
Launch site
Air Force Western Test Range (AFWTR)
Object type
Payload
Rocket body
Debris
Shape & HBR
Unknown
Radar Cross Section
Small (<0.1 m²)

Expand to show TLE details & history
Last TLE update: 21 hours ago

TLE from 21 hours ago
0 NIMBUS 2 DEB
1 28617U 66040AG  25259.54439601  .00003480  00000-0  34137-2 0  9990
2 28617 100.4688 104.8596 0052506  26.0681  30.4686 13.79162078157292
Epoch: 2025-09-16T13:03Z
TLE epoch observation values (Epoch: 2025-09-16T13:03:55.815Z)
Latitude
55.51101°
Longitude
-102.37502°
Altitude
942.777 km
Speed
7.402 km/s
True Right ascension
05h 57m 21s
True Declination
55° 21' 16"
Sunlit
Object was in daylight at epoch
Visualization orbit readout
Latitude
Unknown
Longitude
Unknown
Altitude
Unknown
Speed
Unknown
Apparent Right ascension
Unknown
Apparent Declination
Unknown
Sunlit
N/A
Visualization observer readout
Local Sidereal Time
02:33:23
Azimuth
Unknown
Elevation
Unknown
Doppler factor
Unknown
Orbital elements
Apogee altitude
1,002.716 km
Perigee altitude
925.613 km
Semi-major axis
7,342.301 km
Eccentricity
0.00525
Inclination
100.4688°
RAAN
104.8596°
Arg. of periapsis
26.0681°
True anomaly
30.77542°
Mean anomaly
30.4686°
Eccentric anomaly
30.62184°
Mean motion
3.44981 °/min
Orbital period
104.35 mins
BSTAR
0.0034137
Loading maneuver chart data...
Computing Atmospheric mass density...
Loading historical data...
Loading historical data...
Loading historical data...
Loading historical data...
Loading historical data...
Loading historical data...
Loading historical data...

Documentation

Showing up to 5 results
|